Hourly Weather Roundup
Issued by NWS Central Illinois

Home | Current Version | Previous Version | Text Only | Print | Product List | Glossary On
Versions: 1 2 3 4 5 6 7 8 9 10 11 12 13 14 15 16 17 18 19 20 21 22 23 24 25 26 27 28 29 30 31 32 33 34 35 36 37 38 39 40 41 42 43 44 45 46 47 48 49 50
000
NZUS43 KILX 131910
HWRILX

AREA WEATHER ROUNDUP
NATIONAL WEATHER SERVICE, LINCOLN IL
100 PM CST SAT FEB 13 2016


CITY           SKY/WX    TMP DP  RH WIND       PRES   REMARKS
BLOOMINGTON    SUNNY     18  -4  37 N8        30.57F WCI   8
CHAMPAIGN      SUNNY     18  -2  41 NW8       30.57F WCI   8
DANVILLE       SUNNY     14  -1  51 NW7       30.55F WCI   4
DECATUR        SUNNY     18  -3  39 MISG      30.59F
EFFINGHAM      SUNNY     19   4  51 NW3       30.61F
FLORA          SUNNY     22  -1  36 NE6       30.61F WCI  15
GALESBURG      NOT AVBL
JACKSONVILLE   SUNNY     20   0  42 N5        30.60F WCI  13
LACON          SUNNY     17  -8  33 N3        30.59F
LAWRENCEVILLE  SUNNY     21  -2  36 NW12      30.60F WCI   9
LITCHFIELD     SUNNY     17   1  48 NW5       30.59F WCI  10
$$


CITY           SKY/WX    TMP DP  RH WIND       PRES   REMARKS
LINCOLN        SUNNY     19  -1  42 W3        30.60F
MACOMB         SUNNY     17  -3  41 W3        30.62F
MATTOON        SUNNY     17   1  49 N9        30.58F WCI   6
MT CARMEL AP   SUNNY     21  -4  33 NW7       30.59F WCI  13
OLNEY-NOBLE AP SUNNY     21   0  39 N8        30.61F WCI  12
PARIS          SUNNY     18   1  47 NW8G16    30.59F WCI   7
PEORIA         SUNNY     18  -6  34 NW5       30.60F WCI  11
PONTIAC        SUNNY     17  -2  43 W9        30.59F WCI   6
RANTOUL        SUNNY     18   0  46 N7        30.57F WCI   9
ROBINSON       SUNNY     19  -3  37 N8        30.61F WCI   9
SPRINGFIELD    SUNNY     19  -2  39 CALM      30.61F
TAYLORVILLE    SUNNY     18   0  45 NW3       30.60F
$$

...REGIONAL REPORTS...


CITY           SKY/WX    TMP DP  RH WIND       PRES   REMARKS
CHICAGO O`HARE MOSUNNY   15  -6  39 NW10      30.55F WCI   2
KANKAKEE       SUNNY     16  -4  39 NW8       30.58F WCI   6
MOLINE         SUNNY     17  -7  34 W5        30.60F WCI  10
MOUNT STERLING SUNNY     15   0  50 SW3       30.58F
MOUNT VERNON   SUNNY     21   3  45 CALM      30.60F
PITTSFIELD     SUNNY     17  -1  45 CALM      30.60F
QUINCY         MOSUNNY   16  -1  47 NE7       30.59F WCI   6
ROCKFORD       MOSUNNY   14  -7  38 NW10      30.59F WCI   1
$$


CITY           SKY/WX    TMP DP  RH WIND       PRES   REMARKS
BURLINGTON     CLOUDY    17  -4  39 NW6       30.59F WCI   9
CEDAR RAPIDS   CLOUDY    13  -5  44 CALM      30.56F
DES MOINES     CLOUDY    11  -4  51 S8        30.56F WCI  -1
KIRKSVILLE     CLOUDY    15  -2  46 E5        30.57F WCI   8
OTTUMWA        CLOUDY    13  -2  51 CALM      30.58F
ST LOUIS       PTSUNNY   22  -1  36 CALM      30.61F
$$


CITY           SKY/WX    TMP DP  RH WIND       PRES   REMARKS
TERRE HAUTE    SUNNY     18  -4  37 NW8       30.58F WCI   8
EVANSVILLE     SUNNY     25   2  37 N12       30.60F WCI  14
INDIANAPOLIS   MOSUNNY   18  -5  36 NW7       30.53F WCI   9
LAFAYETTE      SUNNY     17  -6  35 N7        30.57F WCI   8
MADISON        SUNNY      6 -10  47 NW5       30.55F WCI  -3
MILWAUKEE      MOSUNNY   11  -9  40 W12       30.54F WCI  -3
$$





USA.gov is the U.S. government's official web portal to all federal, state and local government web resources and services.